sim
Sign-in with your pilot id or email,
or register
Callsign
Passwort

Schedule Details

Flight Number: RYR6661
Departure: Bremen Airport (EDDW) at 10:55
Arrival: Fuerteventura Airport (GCFV) at 15:40
Route: Ryanair Passenger Schedule. Enter filed route here before submitting Pirep.

Weather Information
Getting current METAR information for EDDW 172220Z 18009KT 9999 FEW010 BKN038 18/17 Q1006
Getting current METAR information for GCFV 172200Z 03007KT CAVOK 24/20 Q1013

Schedule Frequency

Route Map